This is the latest recevied weather packets stored in our database for station/object WW5JC. If no packets are shown the sender has not sent any weather packets the latest 10 day(s).
| Time | Temp. | Humidity | Pressure | Rain* | Wind** | Luminosity | Snow |
|---|---|---|---|---|---|---|---|
| 1778024317 | 26.67° C | 81% | 1006.2 hPa | 0 mm | - | 40 W/m² | - |
| 1778024015 | 26.67° C | 81% | 1006 hPa | 0 mm | - | 44 W/m² | - |
| 1778023712 | 26.67° C | 80% | 1005.9 hPa | 0 mm | - | 39 W/m² | - |
| 1778023410 | 26.67° C | 80% | 1006 hPa | 0 mm | - | 52 W/m² | - |
| 1778023106 | 27.22° C | 79% | 1006.2 hPa | 0 mm | - | 66 W/m² | - |
| 1778022804 | 27.22° C | 78% | 1006.2 hPa | 0 mm | - | 90 W/m² | - |
| 1778022502 | 27.22° C | 78% | 1006.2 hPa | 0 mm | - | 107 W/m² | - |
| 1778022199 | 27.22° C | 79% | 1006.3 hPa | 0 mm | - | 109 W/m² | - |
| 1778021895 | 27.78° C | 78% | 1005.7 hPa | 0 mm | - | 125 W/m² | - |
| 1778021593 | 27.78° C | 77% | 1005.8 hPa | 0 mm | - | 158 W/m² | - |
| 1778021288 | 27.22° C | 78% | 1005.7 hPa | 0 mm | - | 192 W/m² | - |
| 1778020986 | 27.22° C | 79% | 1005.8 hPa | 0 mm | - | 125 W/m² | - |
| 1778020683 | 27.22° C | 78% | 1005.8 hPa | 0 mm | - | 123 W/m² | - |
| 1778020379 | 27.22° C | 78% | 1005.8 hPa | 0 mm | - | 127 W/m² | - |
| 1778020075 | 27.22° C | 78% | 1005.6 hPa | 0 mm | - | 148 W/m² | - |
| 1778019771 | 27.22° C | 78% | 1005.7 hPa | 0 mm | - | 168 W/m² | - |
| 1778019469 | 27.22° C | 78% | 1006 hPa | 0 mm | - | 128 W/m² | - |
| 1778019165 | 27.22° C | 79% | 1005.9 hPa | 0 mm | - | 158 W/m² | - |
| 1778018861 | 27.22° C | 78% | 1005.9 hPa | 0 mm | - | 171 W/m² | - |
| 1778018559 | 27.22° C | 78% | 1006.1 hPa | 0 mm | - | 197 W/m² | - |
| 1778018258 | 27.22° C | 77% | 1006.1 hPa | 0 mm | - | 197 W/m² | - |
| 1778017955 | 27.22° C | 77% | 1006.2 hPa | 0 mm | - | 152 W/m² | - |
| 1778017654 | 27.78° C | 77% | 1006.1 hPa | 0 mm | - | 182 W/m² | - |
| 1778017350 | 27.78° C | 77% | 1006.1 hPa | 0 mm | - | 404 W/m² | - |
| 1778017047 | 27.78° C | 76% | 1006.1 hPa | 0 mm | - | 226 W/m² | - |
* Rain latest hour (hover to see other rain measurements)
** Current wind speed in m/s (hover to see current wind gust speed)